Laughlin Air Force Base Del Rio US
ICAO: KDLF
IATA: DLF
Category: Large
Scheduled Services: No

Elevation: 1082 ft
TransAlt. 18000 ft.

Airport Communications:
DEL RIO APP:119.6
ATIS:114.4
CLNC DEL:120.5
DEL RIO DEP:119.6
GND:138.75
PMSV METRO:35.46
PTD:37.22
TWR:125.2

KDLF Zoom In..

If you have problems with the map follow the link
https://www.worldairports.se/pages/airport.php?
ICAO=KDLF

Runways:

(A) RW 13C length 8852 ft width 150 ft
ILS 110.30 / hdg 128

(B) RW 13L length 8315 ft width 150 ft
---- / hdg 128

(C) RW 13R length 6571 ft width 150 ft
---- / hdg 128

(D) RW 31C length 8852 ft width 150 ft
ILS 108.90 / hdg 308

(E) RW 31L length 6571 ft width 150 ft
---- / hdg 308

(F) RW 31R length 8315 ft width 150 ft
---- / hdg 308

Location; KDLF
Day. 22 / Time. 15.56 Zulu
* Altimeter: 29.95
* Temperature: 14° c. 57.2°f.
* Wind from: 110° Speed 08 kn.
Dewpoint: 11° c.
Visibility: 10 Statute Miles.
Clouds: Few 900 ft.
Clouds: Overcast 2300 ft.

KDLF 221556Z AUTO 11008KT 10SM FEW009 OVC023 14/11 A2995 RMK AO2 SLP139 T01390111 RVRNO


Wind From 110°
Speed 08 kn.

 
 
jpsmedia.com for Web Design worldairports.se 2019   terms of use